Location: Northern Prairie Star Party
(53.2167°N, 112.5333°W)
Time: 01:08:56
(UTC-06:00)

Daily predictions for brighter satellites

Satellite Brightness Start Highest point End
(mag) Time Altitude Azimuth Time Altitude Azimuth Time Altitude Azimuth
H-2A R/B 4.0 00:16:43 22° WNW 00:16:43 22° WNW 00:19:15 10° NW
ATLAS 3B R/B 3.9 00:09:56 10° WNW 00:16:42 38° N 00:19:25 28° NE
Cosmos 1697 Rocket 4.1 00:13:12 10° NNW 00:16:39 34° N 00:16:39 34° N
ATLAS 5 CENTAUR R/B 4.2 00:19:57 10° WNW 00:27:41 20° NE 00:29:46 10° NE
Lacrosse 4 Rocket 4.4 00:39:57 10° NNW 00:40:55 15° NNW 00:40:55 15° NNW
Cosmos 2360 Rocket 4.3 00:50:00 10° NNW 00:54:07 20° NNE 00:55:15 19° NE
Cosmos 1980 Rocket 3.8 00:49:36 10° NNW 00:52:41 32° NNW 00:52:41 32° NNW
CENTAUR R/B 3.6 01:09:21 42° NW 01:10:30 45° NNW 01:17:40 10° NE
SL-16 R/B 3.8 01:15:11 10° NNW 01:18:33 30° N 01:18:33 30° N
CZ-4C R/B 3.6 01:25:19 10° NW 01:31:27 43° NNE 01:33:21 36° ENE
Cosmos 2322 Rocket 3.9 01:41:30 10° NNW 01:44:20 29° NNW 01:44:20 29° NNW
Cosmos 2082 Rocket 3.8 02:01:49 31° NNE 02:01:49 31° NNE 02:04:39 10° NNE
ATLAS 3B R/B 3.4 02:01:26 10° NW 02:06:36 47° NNW 02:06:36 47° NNW
ATLAS 5 CENTAUR R/B 3.8 02:09:19 28° NNW 02:10:46 31° NNE 02:16:04 10° ENE
COSMOS 2455 4.0 02:13:49 10° NW 02:18:21 40° N 02:18:21 40° N
CZ-2C R/B 4.1 02:20:44 10° N 02:24:00 34° N 02:24:00 34° N
USA 238 DEB 4.2 02:19:50 10° NW 02:26:48 58° NNE 02:27:05 58° NE
USA 238 4.2 02:19:56 10° NW 02:26:54 58° NNE 02:27:17 57° NE
Cosmos 2360 Rocket 3.6 02:33:46 10° NNW 02:36:58 33° NNW 02:36:58 33° NNW
Cosmos 2219 Rocket 4.2 02:35:09 10° NNW 02:39:52 26° NE 02:44:35 10° E
CZ-2D R/B 4.5 02:47:13 10° NE 02:49:56 14° E 02:50:47 14° E
Cosmos 1833 Rocket 3.8 02:56:26 39° N 02:56:26 39° N 03:00:19 10° NNE
CENTAUR R/B 4.1 02:56:28 11° WNW 03:02:50 38° N 03:10:05 10° ENE
SL-16 R/B 3.4 03:02:59 40° E 03:04:26 47° ENE 03:10:24 10° N
SL-16 R/B 4.4 02:59:22 10° NW 03:00:23 15° NW 03:00:23 15° NW
Cosmos 2333 Rocket 3.9 03:07:34 10° NNW 03:12:40 31° NE 03:17:44 10° ESE
USA 229 DEB 4.2 03:15:49 50° NW 03:16:26 51° NNW 03:23:19 10° NE
USA 229 4.2 03:15:55 50° NW 03:16:31 51° NNW 03:23:24 10° NE
CZ-4C R/B 3.3 03:13:57 10° NW 03:26:04 22° SE 03:28:26 10° SE
Resurs 1-4 Rocket 3.8 03:18:47 10° NE 03:23:12 26° E 03:24:02 25° ESE
NOSS 3-1 (C) 3.6 03:29:06 70° NNW 03:29:06 70° NNW 03:35:49 10° NE
NOSS 3-1 (A) 3.5 03:32:52 77° N 03:32:52 77° N 03:39:34 10° NE
COSMOS 2428 3.1 03:27:18 10° NNW 03:32:11 60° N 03:32:11 60° N
Cosmos 2181 Rocket 4.3 03:35:49 56° NW 03:35:49 56° NW 03:41:00 10° N
Cosmos 1238 Rocket 4.3 03:36:01 56° ESE 03:36:45 59° E 03:43:24 10° NNE
Meteor 1-5 Rocket 4.4 03:32:22 10° N 03:38:15 73° ENE 03:38:15 73° ENE
GEOS 3 Rocket 4.0 03:35:11 10° NE 03:39:22 60° NE 03:39:22 60° NE
Cosmos 2237 Rocket 3.5 03:37:38 10° NNW 03:42:55 37° NE 03:48:08 10° ESE
Cosmos 2082 Rocket 3.6 03:43:40 27° NW 03:43:46 27° NW 03:48:33 10° NNE
Meteor 1-27 Rocket 3.9 03:48:32 68° N 03:48:32 68° N 03:53:32 10° NNE
ATLAS 2AS CENTAUR R/B 3.1 03:47:45 59° S 03:49:02 68° SE 03:57:09 10° NE
Cosmos 1975 Rocket 4.2 03:50:31 43° NNE 03:50:31 43° NNE 03:53:38 10° NNE
IRS-1D 4.3 03:45:40 10° NNE 03:50:50 46° E 03:51:25 44° ESE
Okean O Rocket 4.4 03:49:00 10° ENE 03:51:07 13° E 03:53:14 10° ESE
Cosmos 1538 Rocket 4.3 03:47:40 10° NNW 03:52:34 65° NE 03:52:34 65° NE
IRS-1C 4.2 03:49:45 10° NNE 03:54:43 76° NE 03:54:43 76° NE
ATLAS 5 CENTAUR R/B 2.7 03:50:57 11° NW 03:56:29 60° NE 04:02:40 10° ESE
CBERS-1 4.3 03:53:59 10° NNE 03:58:18 61° N 03:58:18 61° N
Spot 4 Rocket 4.2 03:55:01 10° NNE 04:00:01 70° E 04:00:01 70° E
SL-16 R/B 4.1 03:55:45 10° NNW 04:00:42 29° NE 04:05:37 10° E
Cosmos 2219 4.3 03:59:59 33° SE 04:01:09 36° ESE 04:06:15 10° NE
Cosmos 1809 Rocket 4.3 03:59:17 10° NNW 04:05:25 90° WSW 04:06:13 70° S
NOSS 3-2 (A) 3.8 04:05:56 10° NW 04:13:12 88° NE 04:21:08 10° SE
NPP 4.0 04:11:41 10° N 04:16:34 52° NW 04:16:34 52° NW
NOSS 2-3 (E) 4.3 04:18:13 58° SSE 04:18:41 61° SE 04:24:38 10° NE
Cosmos 1833 4.0 04:18:29 74° S 04:19:00 83° ESE 04:24:43 10° NNE
Cosmos 1535 Rocket 4.4 04:13:32 10° N 04:19:43 87° E 04:22:19 38° SSE
Cosmos 773 Rocket 4.1 04:15:50 10° NNW 04:21:07 72° ENE 04:26:19 10° SSE
Cosmos 2360 Rocket 4.4 04:18:09 10° NW 04:18:40 12° NW 04:18:40 12° NW
Cosmos 1812 3.7 04:23:56 44° E 04:23:56 44° E 04:27:34 10° NNE
Cosmos 2219 Rocket 2.1 04:18:55 10° NNW 04:24:39 86° ENE 04:30:22 10° SSE
Nadezhda 3 Rocket 3.9 04:24:08 52° S 04:25:51 90° ESE 04:32:11 10° N
ADEOS 3.5 04:24:49 10° NNE 04:30:02 69° WNW 04:30:15 68° W
CZ-2D R/B 2.1 04:25:39 10° NNE 04:30:55 77° ESE 04:32:06 54° S
Cosmos 2333 4.2 04:25:15 10° NW 04:30:18 58° W 04:30:18 58° W
Cosmos 1354 Rocket 4.3 04:31:55 52° WNW 04:32:02 52° WNW 04:37:16 10° NNE
Cosmos 1975 3.4 04:28:14 10° N 04:31:17 50° N 04:31:17 50° N
Lacrosse 5 rocket 2.4 04:37:12 39° SSE 04:37:25 40° SE 04:41:37 10° ENE
Cosmos 44 4.3 04:37:30 37° NW 04:38:25 40° NNW 04:43:23 10° NE
ARIANE 5 R/B 2.4 04:34:56 10° NNE 04:40:05 76° WNW 04:40:47 64° SW
Cosmos 2344 4.3 04:36:25 24° S 04:41:06 50° ESE 04:49:47 10° NE
Meteor 2-16 Rocket 4.3 04:35:58 10° NNW 04:42:08 75° W 04:45:22 30° S
NOSS 2-3 (C) 4.1 04:46:01 55° SW 04:47:14 85° SE 04:53:28 10° NE
Cosmos 304 Rocket 3.6 04:43:18 10° NNW 04:48:06 67° WSW 04:48:22 65° SW
SL-16 R/B 2.8 04:48:05 43° W 04:48:09 43° W 04:54:07 10° NNW
NOSS 3-2 (C) 3.8 04:42:35 10° NW 04:49:51 78° SW 04:57:48 10° SE
ERS-2 2.4 04:46:31 10° NNE 04:49:42 60° NNW 04:49:42 60° NNW
Cosmos 2112 Rocket 4.3 04:46:36 10° NNW 04:51:56 68° ENE 04:57:12 10° SE
CZ-2D R/B 3.6 04:48:10 10° NNE 04:52:15 67° ESE 04:53:10 49° SSE
CENTAUR R/B 3.5 04:47:34 10° NW 04:54:55 61° NNE 05:02:58 10° ESE
Cosmos 1680 Rocket 3.5 04:51:56 10° NNW 04:57:18 82° ENE 05:02:35 10° SSE
Cosmos 2333 Rocket 2.1 04:51:45 10° NW 04:57:30 73° WSW 05:03:09 10° SSE
Lacrosse 5 4.1 04:59:50 10° SSE 05:03:12 18° SE 05:06:35 10° E
Resurs 1-4 Rocket 2.1 04:58:11 10° N 05:03:28 62° WNW 05:05:07 42° SW
ADEOS Rocket 4.4 04:56:36 10° NNE 05:03:42 45° E 05:10:09 10° SSE
Cosmos 1821 Rocket 4.2 05:00:50 10° NNW 05:06:57 50° W 05:10:11 27° SSW
CZ-4C R/B 3.9 05:02:56 10° WNW 05:11:40 24° SSW 05:15:20 10° S
Cosmos 1605 Rocket 3.8 05:05:55 10° NNW 05:12:02 73° W 05:18:11 10° S
NOSS 2-3 (D) 4.2 05:10:33 40° WSW 05:12:32 75° NW 05:18:49 10° NE
Cosmos 1934 Rocket 4.1 05:06:34 10° NNW 05:12:43 54° W 05:17:29 17° SSW
COSMOS 2428 4.3 05:12:11 10° NW 05:14:04 18° WNW 05:14:04 18° WNW
SL-24 R/B 4.4 05:17:38 22° SSW 05:20:52 59° W 05:25:41 10° N
Cosmos 1666 3.4 05:17:55 10° N 05:21:47 55° ENE 05:25:34 10° SSE
Cosmos 2084 4.3 05:20:39 24° S 05:22:26 39° SE 05:26:00 10° ENE
CZ-4B R/B 3.5 05:17:38 10° NNE 05:22:59 65° ESE 05:28:24 10° S
NOSS 0 Rocket 4.1 05:17:20 10° NW 05:23:18 48° WSW 05:29:14 10° S
Cosmos 292 Rocket 3.9 05:20:39 10° NNW 05:25:33 80° ENE 05:30:26 10° SSE
Thor Agena Rocket 3.5 05:21:16 10° SSE 05:26:35 86° WSW 05:31:55 10° NNW
ARGOS Delta rocket 4.2 05:22:26 10° N 05:26:57 45° WNW 05:28:43 31° WSW
Cosmos 2237 Rocket 2.2 05:21:43 10° NW 05:27:14 55° WSW 05:32:43 10° S
RESURS DK-1 4.5 05:24:07 10° SSE 05:27:31 25° ESE 05:30:56 10° NE
Okean O Rocket 1.6 05:23:44 10° NNE 05:28:12 88° ESE 05:31:35 17° SSW
UNKNOWN OBJECT B 3.3 05:25:09 10° N 05:28:53 41° WNW 05:29:39 37° W
Cosmos 2082 Rocket 4.5 05:27:08 10° NW 05:29:56 14° N 05:32:43 10° NNE
IRS-1D 4.3 05:25:09 10° N 05:30:01 36° WNW 05:31:54 28° WSW
CZ-2C R/B 3.8 05:25:50 10° S 05:30:15 50° W 05:34:49 10° NNW
MOZ.5/SAFIR/RUBIN 5/SL-8 4.1 05:28:02 22° SSW 05:30:39 42° W 05:35:12 10° NNW
Cosmos 2098 Rocket 4.5 05:28:17 10° N 05:31:24 33° ENE 05:35:07 10° SE
Cosmos 1500 4.0 05:32:11 10° NNW 05:35:24 31° W 05:35:24 31° W
EXPRESS MD2 3.6 05:35:32 34° SSW 05:35:59 36° S 05:40:17 10° ESE
Meteor 1-13 Rocket 4.3 05:30:49 10° S 05:36:41 89° E 05:42:26 10° NNE
Cosmos 2061 Rocket 4.2 05:32:28 10° N 05:38:47 79° ENE 05:45:08 10° SSE
Cosmos 968 Rocket 3.6 05:36:33 26° SW 05:39:18 56° WNW 05:44:23 10° NNE
Okean 1 3.8 05:38:10 32° WSW 05:39:18 40° WNW 05:43:07 10° N
USA 116 4.3 05:34:58 10° SSE 05:40:04 83° ENE 05:44:40 10° NNW
Cosmos 1980 4.0 05:35:01 10° NW 05:40:20 42° WSW 05:45:39 10° S
Cosmos 923 Rocket 4.4 05:35:27 10° NW 05:40:26 40° WSW 05:45:24 10° S
ATLAS 2AS CENTAUR R/B 3.4 05:35:11 22° W 05:40:29 55° NNW 05:48:32 10° NE
ATLAS 5 CENTAUR R/B 2.6 05:35:39 10° NW 05:41:14 45° SW 05:47:15 10° SSE
Cosmos 1536 Rocket 4.4 05:40:44 27° W 05:41:47 31° WNW 05:45:43 10° N
Cosmos 1025 Rocket 3.2 05:37:33 10° S 05:41:54 75° E 05:46:14 10° NNE
USA 129 3.6 05:40:31 10° SE 05:42:15 29° ENE 05:43:52 10° N
Cosmos 1606 Rocket 3.4 05:38:53 10° NNW 05:43:19 74° W 05:47:39 10° S
Uosat 12 SS-18 rocket 4.3 05:41:33 28° WSW 05:43:34 53° NW 05:47:51 10° NE
Cosmos 1743 3.0 05:41:06 10° NNW 05:44:46 44° W 05:48:24 10° SSW
Cosmos 1346 Rocket 3.8 05:41:02 10° S 05:44:50 48° E 05:48:44 10° NNE
Cosmos 2219 3.5 05:41:55 24° WSW 05:45:10 52° NW 05:50:41 10° NNE
SL-16 R/B 2.1 05:39:44 10° NNW 05:45:28 80° WSW 05:51:09 10° SSE
Cosmos 1802 Rocket 4.1 05:39:38 10° N 05:45:53 79° ENE 05:52:02 10° SSE
Cosmos 1461 3.1 05:44:20 27° WSW 05:46:34 60° NW 05:50:48 10° NE
Cosmos 2100 Rocket 3.9 05:41:57 10° NNW 05:48:11 84° W 05:54:27 10° S
Meteor 2-9 Rocket 4.1 05:43:20 10° NNW 05:48:55 82° W 05:54:37 10° S
PSLV R/B 4.1 05:45:55 10° N 05:49:53 53° WNW 05:52:47 18° SW
Cosmos 724 4.4 05:46:23 10° NW 05:52:34 67° SW 05:58:44 10° SSE
Cosmos 1174 4.1 05:52:01 10° NNW 05:54:58 46° NE 05:57:55 10° ESE
CZ-4B R/B 3.0 05:50:51 10° N 05:55:06 68° WNW 05:59:32 10° SSW
Cosmos 1726 Rocket 3.5 05:50:43 10° NNW 05:55:07 67° W 05:59:28 10° S
COS B Rocket 1.9 05:54:22 10° S 05:56:41 90° E 05:59:12 10° N
Cosmos 1812 4.1 05:59:09 20° W 05:59:57 21° WNW 06:02:59 10° NNW
Okean 1-7 Rocket 3.9 05:56:50 15° SW 06:00:18 46° WNW 06:04:35 10° N
SeaSat 1 3.2 05:57:46 10° SE 06:02:35 56° NE 06:07:26 10° NNW
ADEOS II 2.3 05:59:01 10° NNE 06:04:19 76° ESE 06:09:35 10° S
Cosmos 2227 Rocket 2.3 05:59:58 10° SSW 06:05:40 85° ESE 06:11:23 10° NNE
Cosmos 2219 Rocket 3.3 06:03:51 10° NW 06:07:56 21° W 06:12:00 10° SSW
CZ-2D R/B 3.4 06:06:31 10° N 06:10:30 23° NW 06:13:25 14° W
Cosmos 1892 Rocket 3.6 06:06:10 10° S 06:10:40 89° ENE 06:15:11 10° NNE
SKYMED 2 4.2 06:09:24 10° SSE 06:13:40 60° ENE 06:17:58 10° N
PSLV R/B 3.5 06:10:33 10° NNE 06:14:56 76° WNW 06:19:16 10° SSW
Cosmos 2297 Rocket 2.4 06:09:46 10° SSW 06:15:24 77° ESE 06:21:05 10° NE
Lacrosse 5 rocket 1.6 06:12:56 16° WSW 06:16:36 73° NNW 06:21:00 10° ENE
Okean 2 3.4 06:13:14 10° SSW 06:17:24 83° WNW 06:21:35 10° N
CZ-4B DEB 4.3 06:12:29 10° N 06:17:51 57° WNW 06:23:12 10° SW
Meteor 1-15 Rocket 4.2 06:12:36 10° NNW 06:18:05 58° W 06:23:32 10° S
ARIANE 5 R/B 4.2 06:15:15 10° NNW 06:18:27 17° NW 06:21:08 12° W
COBE Rocket 4.2 06:16:20 10° NNE 06:21:14 69° E 06:25:57 10° S
Meteor 1-31 Rocket 3.3 06:17:25 10° NNE 06:21:19 63° ESE 06:25:11 10° S
MOS 1 Rocket 3.7 06:17:01 10° NNE 06:21:39 70° ESE 06:26:34 10° S
Cosmos 220 Rocket 3.9 06:19:00 10° SSW 06:23:14 73° WNW 06:27:28 10° NNE
ERS-2 4.4 06:22:24 10° NW 06:23:20 11° NW 06:24:16 10° WNW
Cosmos 1777 Rocket 4.4 06:18:26 10° SW 06:23:21 44° NW 06:28:25 10° NNE
Cosmos 2016 Rocket 4.0 06:20:14 10° NNW 06:26:35 68° W 06:32:49 10° S
Cosmos 1812 Rocket 4.0 06:22:56 10° N 06:27:22 70° ENE 06:31:48 10° SSE
Okean-O 2.6 06:23:28 10° NNE 06:27:56 72° WNW 06:32:21 10° SSW
Feng Yun 1-1 Rocket 4.3 06:22:31 10° NNE 06:28:08 87° WNW 06:33:51 10° SSW
Cosmos 1727 Rocket 4.4 06:23:51 10° SW 06:29:45 42° WNW 06:35:45 10° N
Cosmos 1943 4.1 06:25:12 10° NNW 06:30:43 52° NE 06:36:13 10° SE
Cosmos 1603 3.7 06:26:41 10° NNW 06:32:29 86° WSW 06:38:12 10° SSE
Cosmos 2173 Rocket 4.2 06:26:50 10° NNW 06:32:38 47° W 06:38:25 10° SSW
SL-08 R/B 4.5 06:26:56 10° NNW 06:33:05 71° W 06:39:20 10° S
Cosmos 2228 3.2 06:29:04 10° NNW 06:33:21 50° W 06:37:36 10° S
USA 102 2.9 06:39:02 10° S 06:40:39 41° WSW 06:43:25 10° NW
Cosmos 2333 Rocket 3.7 06:37:42 10° WNW 06:40:47 15° W 06:43:50 10° SW
Cosmos 2058 Rocket 3.7 06:36:54 10° NNW 06:40:48 32° W 06:44:41 10° SSW
Resurs 1-4 Rocket 3.9 06:39:30 10° NNW 06:42:21 15° NW 06:45:12 10° W
Cosmos 1459 Rocket 4.4 06:37:16 10° NNW 06:43:09 41° W 06:49:01 10° SSW
Cosmos 2082 3.8 06:38:42 10° SW 06:44:16 61° NW 06:49:52 10° NNE
Lacrosse 5 2.3 06:40:24 10° SW 06:45:24 64° SE 06:50:26 10° ENE
CENTAUR R/B 3.2 06:38:23 10° NW 06:45:50 57° SW 06:53:51 10° SSE
Cosmos 2123 Rocket 4.1 06:42:48 10° S 06:49:00 87° E 06:55:14 10° N
ADEOS Rocket 3.7 06:42:07 10° N 06:49:20 52° WNW 06:55:54 10° SW
Aureole 2 Rocket 3.3 06:46:55 10° NW 06:50:09 28° WSW 06:53:07 10° SSW
Cosmos 192 4.5 06:46:04 10° NNW 06:50:55 53° WSW 06:55:42 10° S
Cosmos 2344 4.1 06:47:32 10° WSW 06:55:29 63° NNW 07:05:33 10° NE
